User: anonymous   Login
Location: Unspecified
(0.0000°N, 0.0000°E)
Time: 03:21:14
(UTC+00:00)
Language:

Explorer 29 - Orbit

View from above orbital plane
View from above orbital plane
View from above satellite
View from above satellite

Ground track
Ground track

The orbit data is extracted from the following two-line orbital elements,

1  1726U 65089A   19054.69060500 -.00000080  00000-0 -45961-4 0  9998
2  1726  59.3823 271.9803 0711580 274.9293 107.8548 11.97048074330310
Epoch (UTC): 23 February 2019 16:34:28
Eccentricity: 0.0711580
inclination: 59.3823°
perigee height: 1119 km
apogee height: 2268 km
right ascension of ascending node: 271.9803°
argument of perigee: 274.9293°
revolutions per day: 11.97048074
mean anomaly at epoch: 107.8548°
orbit number at epoch: 33031

The dashed part of the orbit path shows where the satellite is in the earth's shadow,  

DLR